[[{"header":{"parameterUnit":"m.s-1","parameterCategory":1,"la1":30.2991,"la2":30.254,"lo1":-89.0895,"lo2":-89.0444,"dy":0.0017,"dx":0.0017,"nx":28,"ny":28,"refTime":"2023-04-28T21:00:00:Z","depth":0,"parameterNumber":2,"parameterNumberName":"U-component_of_WINDS"},"data":[0,0,0,0,0,0,0,0,0,0,0,0,0,0,0,0,0,0,0,0,0,0,0,0,0,0,0,0,0,0,0,0,0,0,0,0,0,0,0,0,0,0,0,0,0,0,0,0,0,0,0,0,0,0,0,0,0,0,4.9455,4.9456,0,4.9551,4.9552,4.9553,4.952,4.9518,4.9516,4.9514,4.9616,4.962,4.9625,0,0,0,0,0,0,0,0,0,0,0,0,0,4.9249,4.9253,4.9455,4.9456,4.9457,4.955,4.9552,4.9553,4.9521,4.9518,4.9515,4.9513,4.9614,4.962,4.9625,0,0,0,0,0,0,0,0,0,0,0,0,0,4.9341,4.9254,4.9454,4.9452,4.9453,4.955,4.9552,4.9553,4.9521,4.9518,4.9515,4.9512,4.9612,4.9619,4.9626,4.9733,0,0,4.9647,4.965,0,0,0,0,0,0,0,0,4.9336,4.9348,4.9451,4.9452,4.9453,4.952,4.9516,4.9614,4.9522,4.9495,4.9514,4.951,4.9587,4.9596,4.9621,4.9737,4.9742,4.9648,4.9652,4.9655,4.9657,0,0,0,0,0,0,0,4.9329,4.9344,4.9493,4.9453,4.9454,4.9448,4.9458,4.9535,4.9558,4.9497,4.9495,4.9507,4.9587,4.9614,4.9623,4.9743,4.9648,4.9654,4.9658,4.9661,4.9957,4.996,0,0,0,0,0,0,4.9322,4.9339,4.949,4.9495,4.9385,4.9454,4.9465,4.9502,4.9557,4.9562,4.9509,4.9505,4.9604,4.9615,4.9626,4.9758,4.9655,4.9662,4.9666,4.9953,4.9958,4.9962,0,0,0,0,0,0,4.9317,4.9335,4.9486,4.9417,4.9435,4.9461,4.9503,4.9506,4.9533,4.9566,4.957,4.9533,4.9601,4.9616,4.9707,4.9761,4.9665,4.9671,4.9949,4.9955,4.996,5.0019,0,0,0,0,0,0,4.9312,4.9334,4.9373,4.9418,4.9439,4.9563,4.9506,4.951,4.9544,4.954,4.9589,4.9594,4.96,4.9697,4.9714,4.9769,4.9677,4.9944,4.9952,4.9958,5.0013,5.0026,5.0038,0,0,0,0,0,4.9304,4.9386,4.9375,4.9394,4.9488,4.9566,4.9579,4.9583,4.9549,4.959,4.9612,4.9592,4.9752,4.9706,4.9726,4.9783,4.9941,4.995,4.9957,5.0007,5.0024,5.0037,0,0,0,0,0,0,4.9347,4.9392,4.938,4.9478,4.9519,4.9561,4.9612,4.96,4.9652,4.9645,4.9649,4.9661,4.9755,4.9778,4.9727,4.9891,4.9842,4.9854,4.9873,4.9889,4.9901,4.9894,4.9683,0,0,0,0,0,4.9368,4.9426,4.9462,4.9546,4.9566,4.9586,4.962,4.962,4.9663,4.968,4.9708,4.9752,4.9812,4.9851,4.9908,5.0016,5.0028,5.0065,5.0077,5.0088,5.0099,5.0161,5.0179,4.9989,4.9989,4.9989,0,0,4.9411,4.9443,4.9479,4.9555,4.9586,4.9649,4.9601,4.9668,4.9715,4.969,4.9778,4.9801,4.985,4.9951,4.9997,4.9973,5.0154,5.0098,5.0106,5.0112,5.0172,5.019,5.0206,4.9994,4.9993,4.9992,0,0,4.9523,4.9552,4.9626,4.9659,4.9707,4.972,4.9738,4.9783,4.9797,4.9885,4.9869,4.9926,5.0029,5.0066,5.0098,5.0227,5.0213,5.0246,5.0312,5.0373,5.0388,5.0401,5.045,5.0468,5.0257,5.0257,5.0257,0,4.9572,4.9663,4.9666,4.9735,4.9771,4.9751,4.9829,4.9861,4.9926,4.9951,4.9923,5.0054,5.0085,5.0196,5.0229,5.0254,5.0277,5.0241,5.0385,5.0398,5.0411,5.0458,5.0476,5.0261,5.026,5.026,5.0259,0,4.9723,4.9787,4.9841,4.9905,4.9946,5.0019,5.0035,5.0076,5.0074,5.0091,5.0183,5.0221,5.0286,5.0312,5.031,5.0425,5.0409,5.0383,5.0333,5.0433,5.0478,5.0495,5.0266,5.0265,5.0264,5.0263,0,0,4.9863,4.9928,4.9949,4.9979,5.0032,5.0083,5.0157,5.0221,5.0258,5.0304,5.0368,5.0457,5.0435,5.0471,5.0473,5.0527,5.0632,5.0495,5.0496,5.0521,5.0764,5.0785,5.0805,5.0622,5.0625,5.0628,5.0761,0,4.9981,5.0109,5.0115,5.0233,5.0294,5.0279,5.0343,5.0385,5.0403,5.046,5.048,5.0545,5.0508,5.0531,5.0583,5.0608,5.0681,5.0598,5.0684,5.0687,5.0674,5.0828,5.0849,5.0973,5.0778,5.0781,5.0783,0,5.0136,5.0187,5.0311,5.0359,5.0385,5.0443,5.0505,5.0558,5.0606,5.0616,5.0658,5.0654,5.0732,5.0679,5.079,5.0733,5.0769,5.0787,5.0792,5.0802,5.0742,5.0844,5.1012,5.1031,5.081,5.0808,5.0806,0,5.0229,5.033,5.0418,5.0444,5.0501,5.0543,5.0569,5.0614,5.0653,5.0707,5.0734,5.0796,5.0831,5.0881,5.0895,5.0854,5.1006,5.0953,5.1019,5.1019,5.1052,5.1051,5.123,5.1072,5.1072,5.1072,5.1071,0,5.0362,5.0439,5.0461,5.0516,5.0603,5.061,5.0697,5.072,5.0761,5.0822,5.0812,5.0869,5.0883,5.0944,5.0955,5.1047,5.1062,5.1075,5.1077,5.1077,5.1076,5.1101,5.1094,5.1076,5.1075,5.1074,5.1074,0,5.0482,5.0499,5.0595,5.0642,5.0656,5.0718,5.076,5.0814,5.0831,5.0909,5.0927,5.0956,5.1028,5.1046,5.1132,5.114,5.1249,5.1242,5.1233,5.1233,5.1299,5.1294,5.1503,5.1533,5.1353,5.1355,5.1356,0,5.0566,5.0625,5.0679,5.0719,5.0747,5.0811,5.0852,5.0862,5.0905,5.0966,5.1014,5.1084,5.1141,5.1257,5.1287,5.1353,5.135,5.1419,5.136,5.1359,5.1354,5.1351,5.1359,5.143,5.1432,5.1434,5.1435,0,5.0715,5.0722,5.078,5.0843,5.0891,5.0941,5.0989,5.1023,5.104,5.109,5.1163,5.1207,5.1295,5.1367,5.1434,5.1463,5.1454,5.1453,5.1473,5.1474,5.1467,5.1475,5.1266,5.1449,5.1447,5.1446,5.1446,5.1445,5.0822,5.0875,5.0923,5.0989,5.1026,5.1072,5.1126,5.1151,5.1212,5.1284,5.1287,5.1367,5.1418,5.1507,5.1541,5.1605,5.1585,5.1612,5.1619,5.1626,5.1634,5.1455,5.1617,5.1617,5.1617,5.1616,5.1616,0,5.0973,5.1003,5.1064,5.1132,5.1185,5.117,5.1223,5.1269,5.134,5.1387,5.1444,5.153,5.16,5.1636,5.1706,5.1752,5.1749,5.177,5.1768,5.1776,5.1646,5.1624,5.1771,5.1771,5.1771,5.1771,5.1771,5.1771,5.1058,5.1149,5.1161,5.1272,5.1302,5.138,5.1412,5.1455,5.1493,5.159,5.1648,5.167,5.1715,5.1788,5.1853,5.1862,5.189,5.1914,5.1921,5.18,5.1784,5.1769,5.1748,5.1919,5.1919,5.2045,5.2046,5.2047]},{"header":{"parameterUnit":"m.s-1","parameterCategory":1,"la1":30.2991,"la2":30.254,"lo1":-89.0895,"lo2":-89.0444,"dy":0.0017,"dx":0.0017,"nx":28,"ny":28,"refTime":"2023-04-28T21:00:00:Z","depth":0,"parameterNumber":3,"parameterNumberName":"V-component_of_WINDS"},"data":[0,0,0,0,0,0,0,0,0,0,0,0,0,0,0,0,0,0,0,0,0,0,0,0,0,0,0,0,0,0,0,0,0,0,0,0,0,0,0,0,0,0,0,0,0,0,0,0,0,0,0,0,0,0,0,0,0,0,-1.099,-1.0989,0,-1.0956,-1.0955,-1.0955,-1.0995,-1.0996,-1.0998,-1.0999,-1.0959,-1.0957,-1.0954,0,0,0,0,0,0,0,0,0,0,0,0,0,-1.1086,-1.1084,-1.099,-1.0989,-1.0989,-1.0956,-1.0955,-1.0955,-1.0995,-1.0996,-1.0998,-1.1,-1.096,-1.0957,-1.0954,0,0,0,0,0,0,0,0,0,0,0,0,0,-1.1047,-1.1083,-1.099,-1.1005,-1.1006,-1.0956,-1.0955,-1.0955,-1.0994,-1.0996,-1.0999,-1.1001,-1.0961,-1.0957,-1.0954,-1.0886,0,0,-1.0942,-1.0941,0,0,0,0,0,0,0,0,-1.1049,-1.1043,-1.1003,-1.1004,-1.1005,-1.0982,-1.0975,-1.0931,-1.0994,-1.0998,-1.0999,-1.1002,-1.0965,-1.0961,-1.0949,-1.0884,-1.0882,-1.0942,-1.094,-1.0938,-1.0937,0,0,0,0,0,0,0,-1.1052,-1.1045,-1.0976,-1.1002,-1.1003,-1.1012,-1.1009,-1.0967,-1.0969,-1.0998,-1.1001,-1.0997,-1.0965,-1.0953,-1.0949,-1.0882,-1.0942,-1.0939,-1.0937,-1.0935,-1.0762,-1.0759,0,0,0,0,0,0,-1.1053,-1.1047,-1.0977,-1.0975,-1.1033,-1.1009,-1.1005,-1.0987,-1.097,-1.0969,-1.0995,-1.0999,-1.0958,-1.0953,-1.0947,-1.0869,-1.0938,-1.0935,-1.0933,-1.0764,-1.0761,-1.0758,0,0,0,0,0,0,-1.1055,-1.1047,-1.0979,-1.1012,-1.1004,-1.1005,-1.0984,-1.0985,-1.0973,-1.0967,-1.0968,-1.0982,-1.096,-1.0953,-1.0902,-1.0868,-1.0933,-1.093,-1.0767,-1.0763,-1.076,-1.071,0,0,0,0,0,0,-1.1058,-1.1047,-1.1022,-1.1011,-1.1002,-1.0934,-1.0982,-1.0983,-1.0967,-1.0971,-1.0955,-1.0954,-1.0961,-1.0907,-1.0898,-1.0864,-1.0927,-1.077,-1.0765,-1.0761,-1.0715,-1.0705,-1.0697,0,0,0,0,0,-1.1061,-1.1007,-1.102,-1.1012,-1.0971,-1.0932,-1.0927,-1.0937,-1.0964,-1.0938,-1.0935,-1.0955,-1.0873,-1.0902,-1.0892,-1.0856,-1.0772,-1.0766,-1.0761,-1.0719,-1.0707,-1.0697,0,0,0,0,0,0,-1.1011,-1.1006,-1.102,-1.0962,-1.0948,-1.0939,-1.0907,-1.0924,-1.09,-1.0905,-1.0917,-1.0913,-1.086,-1.0853,-1.0885,-1.0791,-1.0827,-1.0819,-1.0798,-1.0787,-1.0778,-1.0781,-1.0924,0,0,0,0,0,-1.0994,-1.0965,-1.0961,-1.091,-1.0902,-1.0906,-1.0889,-1.0899,-1.0884,-1.0877,-1.087,-1.0854,-1.0825,-1.0805,-1.0778,-1.0714,-1.0711,-1.0684,-1.0675,-1.0668,-1.0662,-1.063,-1.0618,-1.0741,-1.0741,-1.0741,0,0,-1.0957,-1.0951,-1.0931,-1.09,-1.089,-1.0859,-1.09,-1.0865,-1.0842,-1.0871,-1.0824,-1.0819,-1.0801,-1.0744,-1.0718,-1.0736,-1.0628,-1.0661,-1.0656,-1.0653,-1.0623,-1.0612,-1.0601,-1.0737,-1.0738,-1.0738,0,0,-1.0875,-1.0866,-1.0824,-1.0814,-1.0799,-1.0803,-1.0792,-1.0782,-1.078,-1.0734,-1.0756,-1.0728,-1.0677,-1.0665,-1.0651,-1.0567,-1.0585,-1.0557,-1.0511,-1.048,-1.047,-1.0462,-1.0434,-1.0423,-1.0551,-1.0551,-1.055,0,-1.083,-1.0785,-1.0799,-1.0764,-1.075,-1.0778,-1.0735,-1.0724,-1.07,-1.069,-1.071,-1.0649,-1.0639,-1.0581,-1.0561,-1.0548,-1.0538,-1.0559,-1.0471,-1.0463,-1.0455,-1.0428,-1.0417,-1.0547,-1.0548,-1.0548,-1.0548,0,-1.0733,-1.0701,-1.0669,-1.0649,-1.0631,-1.0591,-1.0599,-1.0579,-1.059,-1.0591,-1.0544,-1.0534,-1.0506,-1.0493,-1.0502,-1.0436,-1.0448,-1.0469,-1.0506,-1.044,-1.0415,-1.0405,-1.0543,-1.0544,-1.0545,-1.0546,0,0,-1.0617,-1.0607,-1.0595,-1.0587,-1.0574,-1.055,-1.0512,-1.0487,-1.0471,-1.0454,-1.0423,-1.0381,-1.0402,-1.0387,-1.0395,-1.0367,-1.0304,-1.0393,-1.0392,-1.0378,-1.0234,-1.0219,-1.0207,-1.0316,-1.0314,-1.0312,-1.0236,0,-1.0536,-1.0473,-1.0485,-1.0424,-1.0396,-1.0423,-1.039,-1.0379,-1.0379,-1.0355,-1.0354,-1.0325,-1.0354,-1.0345,-1.0319,-1.0317,-1.0275,-1.0323,-1.0287,-1.0286,-1.0293,-1.0193,-1.0177,-1.0105,-1.0226,-1.0224,-1.0223,0,-1.0432,-1.0415,-1.0351,-1.0346,-1.0335,-1.0305,-1.0285,-1.0261,-1.0249,-1.0251,-1.0236,-1.025,-1.0213,-1.025,-1.0199,-1.0231,-1.0217,-1.0214,-1.0212,-1.021,-1.0251,-1.019,-1.0082,-1.0072,-1.0207,-1.0209,-1.021,0,-1.0357,-1.0317,-1.0275,-1.0267,-1.0259,-1.0238,-1.0233,-1.0223,-1.0208,-1.019,-1.0181,-1.0157,-1.0145,-1.0126,-1.0134,-1.016,-1.0082,-1.0119,-1.0083,-1.0083,-1.0066,-1.0067,-0.9956,-1.0055,-1.0055,-1.0055,-1.0055,0,-1.0266,-1.0227,-1.0242,-1.0215,-1.0172,-1.0187,-1.0143,-1.0141,-1.0133,-1.0107,-1.0127,-1.0102,-1.0113,-1.0089,-1.0094,-1.0052,-1.0046,-1.0047,-1.0049,-1.0046,-1.0046,-1.0038,-1.0043,-1.0052,-1.0053,-1.0053,-1.0054,0,-1.0175,-1.0183,-1.0139,-1.0136,-1.0134,-1.0103,-1.01,-1.0075,-1.0078,-1.0045,-1.0038,-1.0042,-1.0014,-1.002,-0.9989,-0.9993,-0.9941,-0.9948,-0.9946,-0.9948,-0.9913,-0.9917,-0.9794,-0.978,-0.9886,-0.9885,-0.9884,0,-1.0117,-1.0088,-1.0083,-1.0068,-1.0063,-1.0038,-1.0024,-1.0037,-1.0021,-1.0007,-0.9984,-0.9959,-0.994,-0.9895,-0.9894,-0.9871,-0.9879,-0.9838,-0.9876,-0.9874,-0.9881,-0.9883,-0.9881,-0.983,-0.9829,-0.9828,-0.9827,0,-1.0015,-1.0021,-1.0001,-0.9983,-0.9967,-0.9952,-0.994,-0.9926,-0.9938,-0.992,-0.9893,-0.9879,-0.9849,-0.9824,-0.9803,-0.9797,-0.9815,-0.9815,-0.9806,-0.9804,-0.9804,-0.9806,-0.9927,-0.9818,-0.9819,-0.982,-0.982,-0.9821,-0.994,-0.9916,-0.991,-0.9887,-0.988,-0.9869,-0.9847,-0.9848,-0.9827,-0.9805,-0.9814,-0.9784,-0.9774,-0.9748,-0.974,-0.9717,-0.9732,-0.9718,-0.9715,-0.9712,-0.9709,-0.9807,-0.9713,-0.9713,-0.9713,-0.9713,-0.9714,0,-0.984,-0.9838,-0.9818,-0.9801,-0.9784,-0.9803,-0.9791,-0.9775,-0.9749,-0.9739,-0.9721,-0.9692,-0.9668,-0.9667,-0.9645,-0.9627,-0.9634,-0.9621,-0.9623,-0.9622,-0.9695,-0.9706,-0.9615,-0.9615,-0.9615,-0.9615,-0.9615,-0.9615,-0.9787,-0.9749,-0.9754,-0.9713,-0.9711,-0.9684,-0.9676,-0.9665,-0.9658,-0.9625,-0.9607,-0.9607,-0.9601,-0.9579,-0.9559,-0.9559,-0.955,-0.9534,-0.9538,-0.9606,-0.9616,-0.9626,-0.9636,-0.9532,-0.9532,-0.9466,-0.9466,-0.9465]}]]